Regional Weather Roundup
Issued by NWS

Home | Current Version | Previous Version | Graphics & Text | Print | Product List | Glossary On
Versions: 1 2 3 4 5 6 7 8 9 10 11 12 13 14 15 16 17 18 19 20 21 22 23 24 25 26 27 28 29 30 31 32 33 34 35 36 37 38 39 40 41 42 43 44 45 46 47 48 49 50
000
ASUS43 KTOP 301059
RWRKS

WEATHER ROUNDUP FOR KANSAS
NATIONAL WEATHER SERVICE GOODLAND KS
600 AM CDT TUE JUN 30 2015

NOTE:  "FAIR" INDICATES FEW OR NO CLOUDS BELOW 12,000 FEET WITH NO
SIGNIFICANT WEATHER AND/OR OBSTRUCTIONS TO VISIBILITY.

KSZ001>006-013>018-027>032-041>047-301200-
NORTHWEST KANSAS

CITY           SKY/WX    TMP DP  RH WIND       PRES   REMARKS
GOODLAND       CLEAR     63  54  72 W9        30.07S
HAYS           CLEAR     64  52  63 NW8       29.99S
HILL CITY      CLEAR     65  55  70 W6        30.00S
RUSSELL        CLEAR     67  58  72 SE3       29.99R
$$

KSZ061>065-074>080-084>089-301200-
SOUTHWEST KANSAS

CITY           SKY/WX    TMP DP  RH WIND       PRES   REMARKS
DODGE CITY     CLEAR     70  57  63 W10       30.03S
ELKHART          N/A     67  54  63 W7          N/A
GARDEN CITY    CLEAR     65  56  72 SW3       30.05S
GREAT BEND     CLEAR     64  55  72 CALM      30.00S
LIBERAL        CLEAR     64  54  68 SW6         N/A
$$

KSZ066>073-081>083-090>101-301200-
SOUTHEAST KANSAS

CITY           SKY/WX    TMP DP  RH WIND       PRES   REMARKS
CHANUTE        CLEAR     64  63  96 S3        29.96S
COFFEYVILLE    CLEAR     65  64  97 E3        29.96R
HUTCHINSON     MOCLDY    63  58  83 MISG      29.98S
MEDICINE LODGE   N/A     69  61  75 CALM      29.98S
NEWTON         CLEAR     70  55  60 W5        30.00S
PARSONS        CLEAR     64  63  96 CALM      29.97S
WICHITA INTL   PTCLDY    67  59  75 CALM      29.97R
WICHITA JABRA  CLEAR     67  59  75 SW6       29.97S
WICHITA MCCONL CLEAR     68  59  73 SW3       29.98R
WINFIELD       CLEAR     66  60  81 S5        29.99R
$$

KSZ007>012-019>026-033>040-048>060-102>105-301200-
NORTHEAST KANSAS

CITY           SKY/WX    TMP DP  RH WIND       PRES   REMARKS
CONCORDIA      CLEAR     65  59  81 SW3       29.97R
EMPORIA        CLOUDY    67  60  78 W5        29.96S
LAWRENCE       PTCLDY    64  62  93 CALM      29.94R
MANHATTAN      CLEAR     61  60  97 CALM      29.95R
OLATHE IND     CLEAR     69  62  78 SW5       29.94S
OLATHE EXE     PTCLDY    65  63  93 CALM      29.93S
SALINA         CLEAR     66  58  75 S3        29.97R
TOPEKA BILLARD PTCLDY    67  64  90 CALM      29.94S
TOPEKA FORBES  PTCLDY    67  62  84 CALM      29.94S
$$



USA.gov is the U.S. government's official web portal to all federal, state and local government web resources and services.